N1CTF-6 Weather Reports


time (UTC)temp
C
wind
direction
speed
KPH
gust
KPH
rain 1hr
cm
rain 24hr
cm
rain mn
cm
humidity
%
barometer
mb
20260506224439 12 57 1.6 3.2 0.00 0.00 0.51 49 1013.1
20260506223439 12 214 3.2 3.2 0.00 0.00 0.51 49 1013.1
20260506222439 12 69 1.6 3.2 0.00 0.00 0.51 48 1013.0
20260506221439 12 14 4.8 4.8 0.00 0.00 0.51 47 1013.1
20260506220439 12 55 3.2 4.8 0.00 0.00 0.51 49 1012.9
20260506215439 12 0 6.4 6.4 0.00 0.00 0.51 47 1012.8
20260506214440 12 43 8.0 8.0 0.00 0.00 0.51 45 1012.7
20260506213439 12 75 1.6 3.2 0.00 0.00 0.51 48 1012.3
20260506212439 12 50 3.2 4.8 0.00 0.00 0.51 47 1012.4
20260506211439 12 10 3.2 6.4 0.00 0.00 0.51 45 1012.4
20260506210438 12 33 8.0 8.0 0.00 0.00 0.51 46 1012.4
20260506205439 12 15 4.8 6.4 0.00 0.00 0.51 46 1012.3
20260506204439 12 6 4.8 6.4 0.00 0.00 0.51 46 1012.3
20260506203439 12 96 3.2 4.8 0.00 0.00 0.51 46 1012.0
20260506202439 12 83 4.8 6.4 0.00 0.00 0.51 47 1012.0
20260506201439 12 76 4.8 4.8 0.00 0.00 0.51 48 1012.3
20260506200439 12 50 6.4 8.0 0.00 0.00 0.51 48 1011.9
20260506195439 12 38 6.4 11.3 0.00 0.00 0.51 47 1012.2
20260506194439 12 12 4.8 8.0 0.00 0.00 0.51 48 1012.1
20260506193439 12 40 4.8 6.4 0.00 0.00 0.51 47 1012.2
20260506192439 13 26 3.2 6.4 0.00 0.00 0.51 46 1012.1
20260506190658 13 28 3.2 6.4 0.00 0.00 0.51 46 1011.5
20260506185658 13 8 4.8 6.4 0.00 0.00 0.51 45 1011.4
20260506184658 13 61 3.2 4.8 0.00 0.00 0.51 46 1011.7
20260506183658 13 24 6.4 9.7 0.00 0.00 0.51 44 1011.8
20260506182658 13 22 4.8 4.8 0.00 0.00 0.51 46 1011.8
20260506181658 13 73 1.6 6.4 0.00 0.00 0.51 44 1011.7
20260506180658 13 28 6.4 8.0 0.00 0.00 0.51 47 1011.8
20260506175658 13 341 3.2 8.0 0.00 0.00 0.51 48 1011.9
20260506174658 13 29 6.4 9.7 0.00 0.00 0.51 50 1012.0
20260506173658 13 55 3.2 4.8 0.00 0.00 0.51 47 1012.0
20260506172659 13 31 1.6 4.8 0.00 0.00 0.51 46 1012.1
20260506171658 13 4 0.0 4.8 0.00 0.00 0.51 51 1011.9
20260506170658 13 33 6.4 6.4 0.00 0.00 0.51 46 1011.9
20260506165658 12 37 11.3 11.3 0.00 0.00 0.51 52 1012.1
20260506164658 12 31 1.6 4.8 0.00 0.00 0.51 52 1012.3
20260506163658 12 33 6.4 6.4 0.00 0.00 0.51 55 1012.0
20260506162658 12 41 6.4 6.4 0.00 0.00 0.51 53 1012.3
20260506161658 12 76 3.2 6.4 0.00 0.00 0.51 52 1012.3
20260506160658 12 47 8.0 8.0 0.00 0.00 0.51 55 1012.3
20260506155658 11 118 3.2 4.8 0.00 0.00 0.51 58 1012.0
20260506154658 11 33 6.4 6.4 0.00 0.00 0.51 57 1012.0
20260506153658 11 14 6.4 6.4 0.00 0.00 0.51 61 1011.7
20260506152658 10 43 4.8 6.4 0.00 0.00 0.51 62 1011.8
20260506151658 10 3 6.4 6.4 0.00 0.00 0.51 63 1011.6
20260506150658 10 50 3.2 4.8 0.00 0.00 0.51 67 1011.7
20260506145659 10 21 6.4 8.0 0.00 0.00 0.51 64 1011.7
20260506144658 9 103 3.2 4.8 0.00 0.00 0.51 66 1011.9
20260506143659 9 84 3.2 4.8 0.00 0.00 0.51 65 1011.7
20260506142658 9 31 6.4 11.3 0.00 0.00 0.51 71 1011.0
20260506141658 8 64 3.2 4.8 0.00 0.00 0.51 75 1011.3
20260506140658 8 0 4.8 4.8 0.00 0.00 0.51 75 1011.3
20260506135658 8 31 3.2 4.8 0.00 0.00 0.51 81 1011.0
20260506134658 7 81 3.2 4.8 0.00 0.00 0.51 81 1011.4
20260506133658 7 47 6.4 8.0 0.00 0.00 0.51 83 1011.2
20260506132658 7 27 8.0 9.7 0.00 0.00 0.51 84 1010.8
20260506131658 7 74 4.8 4.8 0.00 0.00 0.51 85 1011.0
20260506130703 7 14 4.8 4.8 0.00 0.00 0.51 88 1011.3
20260506125658 7 78 4.8 8.0 0.00 0.00 0.51 88 1011.2
20260506124658 7 20 1.6 3.2 0.00 0.00 0.51 91 1010.7
20260506123658 6 64 0.0 3.2 0.00 0.00 0.51 87 1010.7
20260506122658 7 44 6.4 6.4 0.00 0.00 0.51 87 1010.4
20260506121658 7 2 3.2 4.8 0.00 0.00 0.51 89 1010.2
20260506120658 7 31 1.6 4.8 0.00 0.25 0.51 95 1010.2
20260506115658 7 65 1.6 4.8 0.00 0.25 0.51 96 1010.0
20260506114658 7 48 3.2 4.8 0.00 0.25 0.51 96 1009.8
20260506113658 7 18 4.8 4.8 0.00 0.25 0.51 96 1010.1
20260506112658 7 32 3.2 4.8 0.00 0.25 0.51 96 1009.7
20260506111658 7 91 1.6 3.2 0.00 0.25 0.51 96 1009.1
20260506110658 7 25 1.6 3.2 0.00 0.25 0.51 96 1008.5
20260506105703 7 48 4.8 6.4 0.00 0.25 0.51 96 1009.1
20260506104658 7 1 6.4 6.4 0.00 0.25 0.51 97 1008.7
20260506103658 7 77 4.8 4.8 0.00 0.25 0.51 97 1009.0
20260506102658 7 50 8.0 9.7 0.00 0.51 0.51 97 1009.1
20260506101658 7 40 4.8 4.8 0.00 0.51 0.51 97 1008.8
20260506100659 7 102 1.6 4.8 0.00 0.51 0.51 97 1008.2
20260506095658 7 35 3.2 4.8 0.00 0.51 0.51 97 1007.9
20260506094658 7 88 3.2 4.8 0.00 0.51 0.51 97 1007.8
20260506093658 7 348 3.2 4.8 0.00 0.51 0.51 97 1007.5
20260506092658 7 19 0.0 4.8 0.00 0.51 0.51 97 1007.8
20260506091658 7 52 1.6 3.2 0.00 0.51 0.51 97 1008.0
20260506090658 7 21 4.8 4.8 0.00 0.51 0.51 97 1007.7
20260506085658 7 35 4.8 4.8 0.00 0.51 0.51 97 1007.4
20260506084658 7 37 3.2 4.8 0.00 0.51 0.51 97 1008.0
20260506083658 7 354 4.8 4.8 0.00 0.51 0.51 97 1008.2
20260506082658 7 7 3.2 4.8 0.00 0.51 0.51 97 1008.1
20260506081658 7 31 4.8 6.4 0.00 0.51 0.51 96 1007.7
20260506080658 7 19 8.0 11.3 0.00 0.51 0.51 96 1008.1
20260506072658 7 70 6.4 8.0 0.25 0.51 0.51 96 1007.1
20260506071658 7 112 1.6 6.4 0.25 0.51 0.51 96 1007.1
20260506070658 7 84 4.8 6.4 0.25 0.51 0.51 96 1007.3
20260506061658 8 42 8.0 8.0 0.00 0.51 0.25 96 1007.5
20260506060658 8 64 4.8 6.4 0.00 0.51 0.25 97 1007.2
20260506050658 8 26 6.4 6.4 0.00 0.76 0.00 96 1007.6
20260506044658 8 64 6.4 8.0 0.00 0.76 0.00 96 1007.7
20260506043659 8 60 3.2 3.2 0.00 0.76 0.00 96 1007.4
20260506042658 9 354 6.4 8.0 0.00 0.76 0.00 97 1007.5
20260506041658 9 78 4.8 6.4 0.00 0.76 0.00 97 1007.3
20260506040658 9 111 1.6 4.8 0.25 0.76 0.00 97 1007.7
20260506035658 9 51 4.8 8.0 0.25 0.76 1.27 96 1007.6
20260506034658 9 52 4.8 8.0 0.25 0.76 1.27 96 1007.7
20260506033658 9 162 1.6 3.2 0.25 0.76 1.27 96 1007.8
20260506032658 9 160 3.2 4.8 0.25 0.76 1.27 95 1007.9
20260506031658 9 1 4.8 6.4 0.25 0.76 1.27 95 1008.3
20260506030658 10 61 1.6 4.8 0.25 0.76 1.27 95 1008.6
20260506025658 10 48 9.7 9.7 0.25 0.51 1.02 95 1008.4
20260506024658 10 103 8.0 8.0 0.25 0.51 1.02 95 1008.0
20260506023659 11 65 3.2 6.4 0.25 0.51 1.02 94 1008.1
20260506022658 14 26 6.4 6.4 0.25 0.51 1.02 96 1007.4
20260506021658 14 124 1.6 1.6 0.25 0.51 1.02 96 1007.4
20260506020658 14 52 3.2 3.2 0.25 0.51 1.02 96 1007.2
20260506015658 14 70 3.2 3.2 0.25 0.51 0.76 96 1007.4
20260506014703 14 186 1.6 3.2 0.25 0.51 0.76 95 1007.4
20260506013703 14 81 1.6 3.2 0.25 0.51 0.76 95 1007.4
20260506012658 14 186 0.0 0.0 0.00 0.51 0.76 95 1007.2
20260506011658 14 177 3.2 3.2 0.00 0.51 0.76 95 1006.7
20260506010703 15 67 3.2 3.2 0.00 0.51 0.76 96 1006.7
20260506005659 15 59 1.6 1.6 0.00 0.51 0.76 97 1006.7
20260506002658 15 63 1.6 1.6 0.00 0.51 0.51 96 1006.7
20260506001658 15 108 1.6 3.2 0.00 0.51 0.51 96 1006.7
20260506000658 15 62 4.8 4.8 0.00 0.51 0.51 96 1006.9
20260505235658 15 127 0.0 0.0 0.00 0.51 0.51 95 1006.6
20260505234659 15 81 3.2 3.2 0.00 0.51 0.51 94 1006.9
20260505233703 15 183 0.0 1.6 0.00 0.51 0.51 94 1006.9
20260505232703 15 131 0.0 3.2 0.00 0.51 0.51 94 1006.7
20260505231658 15 92 3.2 3.2 0.00 0.51 0.51 93 1007.1
20260505230658 15 64 1.6 3.2 0.00 0.51 0.51 93 1007.1
20260505225658 15 163 4.8 6.4 0.25 0.51 0.51 93 1007.4